Regional Weather Roundup
Issued by NWS

Home | Current Version | Previous Version | Text Only | Print | Product List | Glossary Off
Versions: 1 2 3 4 5 6 7 8 9 10 11 12 13 14 15 16 17 18 19 20 21 22 23 24 25 26 27 28 29 30 31 32 33 34 35 36 37 38 39 40 41 42 43 44 45 46 47 48 49 50

000
ASUS43 KMPX 290710
RWRMN
WEATHER ROUNDUP FOR MINNESOTA
NATIONAL WEATHER SERVICE TWIN CITIES/CHANHASSEN MN
200 AM CDT SAT AUG 29 2015


NOTE: "FAIR" INDICATES FEW OR NO CLOUDS BELOW 12,000 FEET WITH NO
SIGNIFICANT WEATHER AND/OR OBSTRUCTIONS TO VISIBILITY. N/A MEANS
CURRENT SKY AND/OR WEATHER CONDITIONS ARE NOT AVAILABLE.

MNZ060>063-068>070-290800-
   Twin Cities Metro

CITY           SKY/WX    TMP DP  RH WIND       PRES   REMARKS
TWIN CITIES    CLEAR     59  55  87 E7        30.03F
ST PAUL        CLEAR     58  55  90 SE6       30.03F
CRYSTAL        CLEAR     58  54  86 CALM      30.01F
BLAINE         CLEAR     57  55  94 CALM      30.02F
LAKEVILLE      CLEAR     52  52 100 CALM      30.03F FOG
EDEN PRAIRIE   CLEAR     59  55  87 E3        30.01F
SOUTH ST PAUL  CLEAR     58  55  91 CALM      30.03S
LAKE ELMO      FAIR      55  54  94 SE3       30.04F
$$
MNZ001>005-007-008-013>017-022>024-027-028-290800-
   Northwest Minnesota

CITY           SKY/WX    TMP DP  RH WIND       PRES   REMARKS
BEMIDJI        CLEAR     65  62  90 S6        29.97R
HALLOCK        CLEAR     64  64 100 SE3       29.87S FOG
ROSEAU         HAZE      61  55  82 S3        29.90S VSB 1
WARROAD        CLOUDY    66  63  88 S3        29.92R
THIEF RVR FALL CLEAR    N/A N/A N/A S8        29.90S
CROOKSTON      CLEAR     66  64  94 S7        29.90F
FOSSTON        CLEAR     63  61  94 S10       29.95R
DETROIT LAKES  CLEAR     64  61  88 S10       29.98S
MOORHEAD       CLEAR     66  61  82 S12       29.94F
PARK RAPIDS    CLEAR     64  60  87 S6        29.98S
MAHNOMEN       FAIR      63  61  91 S8        29.95S
$$
MNZ006-009>011-018-025>026-290800-
   North Central Minnesota

CITY           SKY/WX    TMP DP  RH WIND       PRES   REMARKS
BAUDETTE       PTCLDY    67  65  93 SW5       29.91S
FLAG ISLAND    CLEAR     66  64  94 S5        29.89R
INTL FALLS     CLOUDY    68  64  87 CALM      29.93S
WASKISH        CLOUDY    68  64  88 CALM      29.94S
BIG FORK       CLOUDY    66  63  88 SW7       29.97S
LONGVILLE      CLOUDY    64  61  88 S5        29.99R
GRAND RAPIDS     N/A     64  59  82 S8        30.00R
CRANE LAKE     CLOUDY    59  57  94 S3        29.98F
ORR            CLOUDY    66  55  68 E5        29.97R
COOK           CLOUDY    66  63  88 SW7       29.98R
WALKER         FAIR      64  60  89 SW8       29.98R
$$
MNZ012-019>021-037-290800-
   Northeast Minnesota

CITY           SKY/WX    TMP DP  RH WIND       PRES   REMARKS
DULUTH         PTCLDY    60  56  86 SW6       30.03R
ELY            CLOUDY    55  54  94 E6        30.03R
HIBBING        CLOUDY    66  60  81 SW5       29.99S
EVELETH        CLOUDY    63  61  94 SW7       30.00F
DULUTH HARBOR  PTCLDY    63  61  94 SW5       30.03R
TWO HARBORS    PTCLDY    64  61  88 CALM      30.01R
SILVER BAY     CLOUDY    66  61  82 CALM      30.02R
GRAND MARAIS     N/A     58  56  93 CALM      30.01S
G MARAIS ARPRT RAIN      57  54  88 S8        30.02F
$$
MNZ029>031-032-039>041-046>048-054>057-064-290800-
   West Central Minnesota

CITY           SKY/WX    TMP DP  RH WIND       PRES   REMARKS
FERGUS FALLS   CLEAR     63  63 100 S9        29.98S
WHEATON        CLEAR     61  57  88 S9        29.99F
MORRIS         CLEAR     59  57  94 S6        29.99F
ALEXANDRIA     CLEAR     61  58  90 S9        30.01F
ELBOW LAKE     FAIR      60  58  96 S8        29.99F
WADENA         CLEAR     61  59  94 SW7       29.99S
GLENWOOD       CLEAR     57  55  94 S7        30.02F
APPLETON       CLEAR     61  55  82 S7        29.99F
BENSON         CLEAR     57  55  94 S5        30.01F
ORTONVILLE     CLEAR     61  57  88 S6        30.00F
MADISON        CLEAR     57  55  94 S5        30.01F
WILLMAR        FAIR      55  55 100 CALM      30.03F FOG
$$
MNZ033>034-036-042>043-049>051-058-059-290800-
   Central Minnesota

CITY           SKY/WX    TMP DP  RH WIND       PRES   REMARKS
ST CLOUD       CLEAR     56  54  93 S3        30.02F
SAUK CENTRE    FAIR      57  56  97 S5        30.02S
PAYNESVILLE    CLEAR     58  55  92 CALM      30.03F
AITKIN         CLEAR     63  57  82 S7        30.00R
PINE RIVER     CLEAR     61  61 100 CALM      30.03S
BRAINERD       CLEAR     61  58  90 S8        30.01S
STAPLES        CLEAR     59  57  94 S7        29.99F
LONG PRAIRIE   CLOUDY    57  55  94 S7        30.01F
LITTLE FALLS   PTCLDY    57  54  88 S5        30.01F
LITCHFIELD     CLEAR     55  55 100 CALM      30.03F
BUFFALO        CLEAR     55  53  92 CALM      30.03F
MAPLE LAKE     FOG       55  54  97 CALM      30.03F VSB 1
$$
MNZ037-044-045-052-053-290800-
   East Central Minnesota

CITY           SKY/WX    TMP DP  RH WIND       PRES   REMARKS
PRINCETON      FOG       57  55  94 CALM      30.03S VSB 1
MORA           CLEAR     55  54  94 CALM      30.05R
CAMBRIDGE      CLEAR     59  52  77 CALM      30.01F
RUSH CITY      MOCLDY    56  55  93 CALM      30.04R
MOOSE LAKE     PTCLDY    57  55  94 CALM      30.01S
HINCKLEY       FAIR      55  55 100 CALM      30.04R
CLOQUET        PTCLDY    61  55  82 S3        30.03R
MCGREGOR       CLEAR     61  59  94 S3        30.02S
$$
MNZ071>073-080-081-089-090-097-098-290800-
   Southwest Minnesota

CITY           SKY/WX    TMP DP  RH WIND       PRES   REMARKS
MONTEVIDEO     CLEAR     57  55  94 SW5       30.03F
GRANITE FALLS  CLEAR     53  53  98 CALM      30.03F
CANBY          CLEAR     57  55  92 S5        30.03S
MARSHALL       CLEAR     54  48  82 S3        30.03F
REDWOOD FALLS  FOG       55  54  96 CALM      30.02S VSB 3/4
OLIVIA         CLEAR     52  50  93 CALM      30.02F
PIPESTONE      CLEAR     55  54  94 CALM      30.03F
WINDOM         CLEAR     54  52  94 CALM      30.03S
WORTHINGTON    CLEAR     55  52  88 N5        30.03S
JACKSON        CLOUDY    59  55  88 NE6       30.03S
TRACY          CLEAR     56  55  95 CALM      30.04S
SLAYTON        CLEAR     51  51 100 CALM      30.04F
$$
MNZ065>067-074>077-082>085-091>093-290800-
   South Central Minnesota

CITY           SKY/WX    TMP DP  RH WIND       PRES   REMARKS
MANKATO        PTCLDY    55  52  88 CALM      30.02F
NEW ULM        CLEAR     55  55 100 CALM      30.02F
ST JAMES       CLOUDY    57  57 100 CALM      30.03F
FAIRMONT       CLOUDY    57  52  82 N8        30.01S
GLENCOE        CLEAR     55  55 100 CALM      30.02F
FARIBAULT      CLOUDY    55  55 100 CALM      30.03S FOG
OWATONNA       CLOUDY    57  55  94 NE5       30.02S
WASECA         CLOUDY    55  54  94 MISG      30.03F FOG
ALBERT LEA     CLOUDY    59  57  94 NE8       30.00S FOG
$$
MNZ078>079-086>088-094>096-290800-
   Southeast Minnesota

CITY           SKY/WX    TMP DP  RH WIND       PRES   REMARKS
ROCHESTER      CLOUDY    58  56  93 NE8       30.02S
RED WING       CLEAR     57  54  88 E7        30.02F
STANTON        CLEAR     54  52  93 CALM      30.01F FOG
DODGE CENTER   CLOUDY    55  55 100 NE6       30.02S FOG
WINONA         CLOUDY    59  55  88 E5        30.02S
AUSTIN         CLOUDY    61  57  88 NE6       30.00R
PRESTON        CLOUDY    57  56  95 NE5       30.01S FOG
$$
ABBREVIATIONS USED IN REMARKS
   TC - TEMPERATURES IN CELSIUS
  WCI - WIND CHILL INDEX
   HX - HEAT INDEX
  VSB - VISIBILITY
$$



USA.gov is the U.S. government's official web portal to all federal, state and local government web resources and services.